Regional Weather Roundup
Issued by NWS

Home | Current Version | Previous Version | Text Only | Print | Product List | Glossary Off
Versions: 1 2 3 4 5 6 7 8 9 10 11 12 13 14 15 16 17 18 19 20 21 22 23 24 25 26 27 28 29 30 31 32 33 34 35 36 37 38 39 40 41 42 43 44 45 46 47 48 49 50

000
ASUS43 KFSD 211210
RWRSD

WEATHER ROUNDUP FOR SOUTH DAKOTA
NATIONAL WEATHER SERVICE SIOUX FALLS SD
700 AM CDT THU AUG 21 2014

NOTE: "FAIR" INDICATES FEW OR NO CLOUDS BELOW 12,000 FEET WITH NO
SIGNIFICANT WEATHER AND/OR OBSTRUCTIONS TO VISIBILITY.


SDZ001>005-009-010-012>017-211300-
NORTHWEST AND NORTH CENTRAL SOUTH DAKOTA

CITY           SKY/WX    TMP DP  RH WIND       PRES   REMARKS
BUFFALO          N/A     58  54  86 W7        29.84S
FAITH            N/A     60  58  92 NW9       29.87R
MOBRIDGE       CLOUDY    66  65  96 NW12      29.78R
$$

SDZ012>016-024>037-041>051-057-063-072>074-211300-
SOUTHWEST AND SOUTH CENTRAL SOUTH DAKOTA

CITY           SKY/WX    TMP DP  RH WIND       PRES   REMARKS
RAPID CTY ARPT MOCLDY    62  59  90 CALM      29.91R
PIERRE         CLEAR     65  64  97 NW12      29.78R
CUSTER         MOCLDY    55  52  89 W5        30.04S
ELLSWORTH AFB  CLOUDY    66  58  74 VRB2      29.91R
PHILIP         PTCLDY    61  59  93 W6        29.86R
PINE RIDGE     CLEAR     55  55 100 CALM      29.93R
WINNER         CLOUDY    69  68  96 NW13      29.82R FOG
$$

SDZ004>011-016>023-039-040-211300-
NORTHEAST SOUTH DAKOTA

CITY           SKY/WX    TMP DP  RH WIND       PRES   REMARKS
ABERDEEN       MOCLDY    63  63 100 W6        29.74R
WATERTOWN      CLOUDY    67  66  97 CALM      29.76R
SISSETON         N/A     67  67 100 S5        29.73R
$$

SDZ017-020-022-023-036>040-048>070-211300-
SOUTHEAST SOUTH DAKOTA

CITY           SKY/WX    TMP DP  RH WIND       PRES   REMARKS
SIOUX FALLS    MOCLDY    73  70  90 W3        29.74R
HURON          PTCLDY    67  65  93 NW8       29.75R
CHAMBERLAIN    CLOUDY    68  68 100 NW9       29.79R FOG
MITCHELL       FOG       70  70 100 NW7       29.74R VSB 1/4
YANKTON        CLOUDY    77  66  69 S10       29.74R
$$

ABBREVIATIONS USED IN REMARKS
   TC - TEMPERATURE IN CELSIUS
  WCI - WIND CHILL INDEX
   HX - HEAT INDEX
  VSB - VISIBILITY



USA.gov is the U.S. government's official web portal to all federal, state and local government web resources and services.